Theta_e
312 310 309 310 309 308 308 309 311 311 312 313 313 315 319 320 322 322 324 320 323 325
310 310 309 310 310 309 310 309 310 310 310 310 311 312 315 316 315 316 317 317 318 315
309 309 309 309 308 309 309 309 308 306 307 309 309 309 311 313 317 315 313 314 312 312
308 308 308 306 304 305 306 307 306 306 306 306 307 309 308 309 311 311 311 312 313 313
308 308 307 304 305 305 304 305 305 306 307 306 307 308 308 306 307 308 310 312 311 311
306 307 305 305 308 305 304 304 304 304 307 305 307 306 307 307 308 307 307 308 308 309
306 307 307 308 305 304 305 304 304 304 305 305 305 306 308 308 307 307 308 309 309 309
305 304 305 306 304 305 305 305 305 304 304 307 305 305 306 306 308 307 307 309 308 310
304 305 306 303 303 304 305 305 305 305 304 304 305 304 304 306 306 307 306 306 308 310
304 304 303 303 304 304 305 306 305 305 304 304 308 302 302 304 306 307 306 307 308 307
304 303 302 303 303 305 306 305 304 305 306 305 308 302 300 302 308 308 308 309 310 308
304 302 302 302 303 305 305 305 304 304 306 306 305 301 299 301 304 305 306 306 309 310
303 302 301 303 304 305 306 305 304 304 306 305 305 300 299 301 304 303 304 306 306 303
304 302 303 304 304 305 305 305 304 302 305 305 304 305 298 299 304 303 303 303 304 305
Wind_Speed
12 10 11 11 11 11 11 11 13 13 14 13 12 11 11 9 9 8 8 10 8 6
13 14 12 13 12 10 12 11 13 13 12 12 13 12 11 8 8 4 4 5 4 3
14 14 14 13 13 14 14 13 12 12 12 12 12 10 10 9 9 7 4 3 4 3
15 15 14 12 13 13 13 13 13 12 11 11 9 10 7 7 7 6 5 5 6 8
15 14 13 12 13 13 14 12 12 13 12 11 12 8 9 9 8 7 10 9 7 8
14 14 13 14 15 13 12 12 12 12 13 10 10 9 8 7 7 8 7 8 8 8
14 15 15 16 13 13 13 13 11 11 10 11 9 10 10 9 8 8 9 8 8 8
15 14 15 14 13 13 13 11 11 10 10 11 8 7 9 8 8 7 8 7 7 7
15 16 14 13 14 14 13 11 10 9 9 9 6 7 10 10 5 7 6 6 6 6
16 15 13 13 13 13 12 9 9 9 8 9 10 9 10 10 6 6 5 5 4 5
16 14 14 13 13 12 8 9 7 7 8 8 8 10 10 9 9 7 8 8 9 6
15 14 14 13 13 12 8 7 7 6 6 8 6 9 9 8 6 7 7 5 5 7
14 14 14 14 13 9 8 7 5 6 6 6 6 9 9 9 5 6 5 6 7 5
14 14 13 12 11 10 7 7 6 6 3 3 4 5 10 11 7 6 6 6 4 5
Wind_Direction
311 305 302 299 301 295 296 295 300 288 286 289 295 298 279 257 248 229 239 234 233 211
313 308 300 295 293 291 292 290 290 294 289 289 285 282 283 256 250 217 225 205 229 259
312 307 302 296 293 292 292 293 290 289 288 291 284 282 273 269 239 199 192 202 182 248
308 305 297 292 288 286 288 288 289 286 286 283 278 278 256 247 247 224 201 206 216 214
304 301 298 289 289 288 282 281 276 281 277 279 283 277 270 244 230 226 228 213 222 237
308 306 298 295 294 287 282 273 272 272 274 271 274 272 262 244 236 213 201 211 206 222
314 315 308 303 294 283 279 275 267 261 261 260 254 258 264 242 222 219 222 216 209 222
316 310 303 301 294 287 284 275 266 261 251 259 250 245 245 251 249 238 222 209 207 217
312 306 306 302 297 291 286 279 269 255 244 248 237 240 236 236 242 230 221 217 209 192
311 307 307 302 297 296 292 285 279 257 239 237 240 208 213 219 235 238 195 203 181 175
318 312 306 303 300 300 296 295 286 282 240 234 233 212 210 207 220 201 195 199 185 187
317 307 306 305 301 300 297 300 294 282 245 231 225 207 205 192 190 203 206 196 186 191
311 306 307 306 303 302 295 298 299 295 266 221 222 193 190 175 175 173 168 167 176 192
314 310 308 309 309 304 307 301 307 315 283 228 223 196 171 167 165 155 151 153 167 184